When you browse on this site, cookies collect data to enhance your experience and personalize the content and advertising you see.
Visit our Privacy Policy to learn more. By continuing to use the site, you agree to this use of cookies and data.
  • In Romania
  • List of Countries
  • For 7 days
  • Water Temperature
  • Satellite Maps
  • Weather Map
  • Weather Widgets
  • user-avatar
    Login

    Hourly Weather Saint-Jean-de-la-Ruelle

    Today, 17 June, Monday

    Time Temperature Precipitation Wind Pressure Humidity
    00:00 +13°C° 0 mm 0 mps 755 mmHg 88%
    01:00 +14°C° 0 mm 1 mps 755 mmHg 89%
    02:00 +13°C° 0 mm 1 mps 755 mmHg 90%
    03:00 +13°C° 0 mm 1 mps 754 mmHg 91%
    04:00 +14°C° 0 mm 1 mps 754 mmHg 89%
    05:00 +15°C° 0 mm 1 mps 754 mmHg 87%
    06:00 +15°C° 0 mm 0 mps 754 mmHg 86%
    07:00 +19°C° 0 mm 1 mps 754 mmHg 79%
    08:00 +21°C° 0 mm 1 mps 754 mmHg 73%
    09:00 +23°C° 0 mm 1 mps 754 mmHg 66%
    10:00 +24°C° 0 mm 1 mps 754 mmHg 62%
    11:00 +25°C° 0 mm 1 mps 754 mmHg 57%
    12:00 +26°C° 0 mm 1 mps 754 mmHg 53%
    13:00 +26°C° 0 mm 1 mps 753 mmHg 53%
    14:00 +26°C° 0 mm 2 mps 753 mmHg 54%
    15:00 +26°C° 0 mm 2 mps 752 mmHg 54%
    16:00 +26°C° 0 mm 2 mps 752 mmHg 59%
    17:00 +25°C° 0 mm 2 mps 752 mmHg 64%
    18:00 +24°C° 0 mm 2 mps 752 mmHg 69%
    19:00 +23°C° 0 mm 2 mps 752 mmHg 74%
    20:00 +20°C° 0 mm 2 mps 752 mmHg 79%
    21:00 +18°C° 0 mm 2 mps 752 mmHg 84%
    22:00 +18°C° 0 mm 2 mps 752 mmHg 86%
    23:00 +17°C° 0 mm 2 mps 752 mmHg 88%

    Tomorrow, 18 June, Tuesday

    Time Temperature Precipitation Wind Pressure Humidity
    00:00 +16°C° 0 mm 2 mps 752 mmHg 90%
    01:00 +16°C° 0 mm 2 mps 751 mmHg 90%
    02:00 +16°C° 0 mm 2 mps 751 mmHg 91%
    03:00 +16°C° 0 mm 2 mps 751 mmHg 92%
    04:00 +16°C° 0 mm 2 mps 750 mmHg 90%
    05:00 +17°C° 0 mm 2 mps 750 mmHg 89%
    06:00 +18°C° 0 mm 3 mps 750 mmHg 87%
    07:00 +20°C° 0 mm 3 mps 750 mmHg 82%
    08:00 +21°C° 0 mm 3 mps 750 mmHg 78%
    09:00 +24°C° 0 mm 3 mps 750 mmHg 74%
    10:00 +25°C° 0 mm 3 mps 749 mmHg 69%
    11:00 +27°C° 0 mm 3 mps 749 mmHg 64%
    12:00 +28°C° 0 mm 3 mps 749 mmHg 59%
    13:00 +29°C° 0.2 mm 3 mps 748 mmHg 57%
    14:00 +29°C° 0.2 mm 3 mps 748 mmHg 56%
    15:00 +29°C° 0.2 mm 3 mps 747 mmHg 54%
    16:00 +29°C° 0 mm 3 mps 747 mmHg 59%
    17:00 +28°C° 0 mm 3 mps 747 mmHg 63%
    18:00 +27°C° 0 mm 3 mps 746 mmHg 67%
    19:00 +26°C° 0 mm 3 mps 746 mmHg 74%
    20:00 +24°C° 0 mm 2 mps 746 mmHg 81%
    21:00 +21°C° 0 mm 2 mps 746 mmHg 88%
    22:00 +20°C° 0 mm 2 mps 746 mmHg 87%
    23:00 +20°C° 0 mm 3 mps 746 mmHg 86%

    Day after tomorrow, 19 June, Wednesday

    Time Temperature Precipitation Wind Pressure Humidity
    00:00 +19°C° 0 mm 3 mps 746 mmHg 85%
    01:00 +19°C° 0.1 mm 3 mps 746 mmHg 88%
    02:00 +18°C° 0.1 mm 4 mps 746 mmHg 90%
    03:00 +17°C° 0.1 mm 4 mps 746 mmHg 92%
    04:00 +18°C° 0.2 mm 3 mps 746 mmHg 91%
    05:00 +18°C° 0.2 mm 3 mps 746 mmHg 89%
    06:00 +18°C° 0.2 mm 2 mps 747 mmHg 88%
    07:00 +19°C° 0 mm 3 mps 747 mmHg 82%
    08:00 +21°C° 0 mm 4 mps 747 mmHg 75%
    09:00 +22°C° 0 mm 5 mps 748 mmHg 69%
    10:00 +22°C° 0 mm 6 mps 748 mmHg 66%
    11:00 +23°C° 0 mm 6 mps 748 mmHg 64%
    12:00 +23°C° 0 mm 6 mps 748 mmHg 61%
    13:00 +23°C° 0 mm 6 mps 748 mmHg 61%
    14:00 +23°C° 0 mm 6 mps 748 mmHg 61%
    15:00 +23°C° 0 mm 6 mps 748 mmHg 62%
    16:00 +22°C° 0.1 mm 5 mps 748 mmHg 67%
    17:00 +21°C° 0.1 mm 4 mps 748 mmHg 73%
    18:00 +20°C° 0.1 mm 4 mps 748 mmHg 79%
    19:00 +19°C° 0 mm 3 mps 749 mmHg 83%
    20:00 +18°C° 0 mm 3 mps 749 mmHg 86%
    21:00 +17°C° 0 mm 2 mps 750 mmHg 90%
    22:00 +16°C° 0 mm 2 mps 750 mmHg 91%
    23:00 +16°C° 0 mm 2 mps 749 mmHg 92%

    20 June, Thursday

    Time Temperature Precipitation Wind Pressure Humidity
    00:00 +15°C° 0 mm 1 mps 749 mmHg 93%
    01:00 +15°C° 0 mm 1 mps 749 mmHg 93%
    02:00 +15°C° 0 mm 1 mps 749 mmHg 94%
    03:00 +15°C° 0 mm 1 mps 749 mmHg 94%
    04:00 +16°C° 0 mm 1 mps 750 mmHg 93%
    05:00 +16°C° 0 mm 2 mps 750 mmHg 93%
    06:00 +16°C° 0 mm 2 mps 750 mmHg 92%
    07:00 +17°C° 0.2 mm 2 mps 750 mmHg 88%
    08:00 +18°C° 0.2 mm 2 mps 750 mmHg 83%
    09:00 +19°C° 0.2 mm 2 mps 751 mmHg 79%
    10:00 +19°C° 0.4 mm 2 mps 751 mmHg 78%
    11:00 +20°C° 0.4 mm 2 mps 751 mmHg 77%
    12:00 +20°C° 0.4 mm 2 mps 751 mmHg 76%
    13:00 +20°C° 0.3 mm 2 mps 750 mmHg 74%
    14:00 +20°C° 0.3 mm 3 mps 750 mmHg 73%
    15:00 +21°C° 0.3 mm 3 mps 750 mmHg 71%
    16:00 +20°C° 0.1 mm 2 mps 750 mmHg 73%
    17:00 +20°C° 0.1 mm 2 mps 751 mmHg 75%
    18:00 +20°C° 0.1 mm 2 mps 751 mmHg 76%
    19:00 +18°C° 0 mm 2 mps 751 mmHg 80%
    20:00 +17°C° 0 mm 2 mps 751 mmHg 83%
    21:00 +15°C° 0 mm 1 mps 752 mmHg 87%
    22:00 +14°C° 0 mm 1 mps 752 mmHg 87%
    23:00 +14°C° 0 mm 1 mps 752 mmHg 87%

    21 June, Friday

    Time Temperature Precipitation Wind Pressure Humidity
    00:00 +13°C° 0 mm 1 mps 752 mmHg 87%
    01:00 +13°C° 0 mm 1 mps 752 mmHg 88%
    02:00 +12°C° 0 mm 1 mps 752 mmHg 88%
    03:00 +12°C° 0 mm 1 mps 752 mmHg 89%
    04:00 +13°C° 0 mm 1 mps 752 mmHg 88%
    05:00 +14°C° 0 mm 1 mps 752 mmHg 87%
    06:00 +15°C° 0 mm 1 mps 753 mmHg 86%
    07:00 +16°C° 0.1 mm 1 mps 753 mmHg 80%
    08:00 +19°C° 0.1 mm 1 mps 753 mmHg 74%
    09:00 +21°C° 0.1 mm 1 mps 753 mmHg 68%
    10:00 +21°C° 0.2 mm 1 mps 753 mmHg 66%
    11:00 +21°C° 0.2 mm 2 mps 753 mmHg 64%
    12:00 +21°C° 0.2 mm 2 mps 753 mmHg 62%
    13:00 +21°C° 0.2 mm 2 mps 752 mmHg 62%
    14:00 +23°C° 0.2 mm 2 mps 752 mmHg 62%
    15:00 +23°C° 0.2 mm 2 mps 752 mmHg 62%
    16:00 +21°C° 0.2 mm 2 mps 752 mmHg 66%
    17:00 +22°C° 0.2 mm 1 mps 752 mmHg 69%
    18:00 +22°C° 0.2 mm 1 mps 752 mmHg 73%
    19:00 +20°C° 0.1 mm 1 mps 752 mmHg 77%
    20:00 +18°C° 0.1 mm 1 mps 753 mmHg 82%
    21:00 +16°C° 0.1 mm 1 mps 753 mmHg 87%
    22:00 +15°C° 0 mm 2 mps 753 mmHg 88%
    23:00 +15°C° 0 mm 2 mps 752 mmHg 90%

    22 June, Saturday

    Time Temperature Precipitation Wind Pressure Humidity
    00:00 +14°C° 0 mm 2 mps 752 mmHg 91%
    01:00 +14°C° 0 mm 2 mps 752 mmHg 92%
    02:00 +14°C° 0 mm 2 mps 752 mmHg 92%
    03:00 +14°C° 0 mm 2 mps 752 mmHg 93%
    04:00 +14°C° 0 mm 2 mps 752 mmHg 91%
    05:00 +13°C° 0 mm 3 mps 752 mmHg 90%
    06:00 +14°C° 0 mm 3 mps 752 mmHg 88%
    07:00 +16°C° 0 mm 3 mps 751 mmHg 83%
    08:00 +18°C° 0 mm 3 mps 751 mmHg 77%
    09:00 +19°C° 0 mm 3 mps 751 mmHg 72%
    10:00 +20°C° 0 mm 3 mps 751 mmHg 67%
    11:00 +22°C° 0 mm 3 mps 751 mmHg 62%
    12:00 +24°C° 0 mm 3 mps 750 mmHg 57%
    13:00 +24°C° 0.5 mm 3 mps 750 mmHg 60%
    14:00 +24°C° 0.5 mm 2 mps 750 mmHg 63%
    15:00 +24°C° 0.5 mm 2 mps 749 mmHg 66%
    16:00 +23°C° 0.8 mm 2 mps 749 mmHg 71%
    17:00 +21°C° 0.8 mm 2 mps 749 mmHg 76%
    18:00 +21°C° 0.8 mm 2 mps 749 mmHg 81%
    19:00 +20°C° 0.4 mm 1 mps 749 mmHg 83%
    20:00 +19°C° 0.4 mm 1 mps 749 mmHg 85%
    21:00 +18°C° 0.4 mm 1 mps 749 mmHg 87%
    22:00 +16°C° 0 mm 1 mps 749 mmHg 88%
    23:00 +16°C° 0 mm 1 mps 749 mmHg 89%
    Show more